Regional Weather Roundup
Issued by NWS Sioux Falls, SD

Home | Current Version | Previous Version | Graphics & Text | Print | Product List | Glossary On
Versions: 1 2 3 4 5 6 7 8 9 10 11 12 13 14 15 16 17 18 19 20 21 22 23 24 25 26 27 28 29 30 31 32 33 34 35 36 37 38 39 40 41 42 43 44 45 46 47 48 49 50
000
ASUS43 KFSD 301110
RWRFSD

WEATHER ROUNDUP FOR SE SOUTH DAKOTA/SW MINNESOTA/NW IOWA
NATIONAL WEATHER SERVICE SIOUX FALLS SD
500 AM CST FRI JAN 30 2015

NOTE: "FAIR" INDICATES FEW OR NO CLOUDS BELOW 12,000 FEET WITH NO
SIGNIFICANT WEATHER AND OR OBSTRUCTIONS TO VISIBILITY.


SDZ038>040-050-052>070-301200-
SOUTHEAST SOUTH DAKOTA

CITY           SKY/WX    TMP DP  RH WIND       PRES   REMARKS
CHAMBERLAIN    CLEAR     19  17  93 SE7       30.38F WCI   9
HURON          CLEAR     17  14  88 S9        30.44F WCI   6
MADISON        FAIR      18  18 100 S8        30.44F WCI   7
MITCHELL       CLEAR     21  17  84 S10       30.47F WCI  10
SIOUX FALLS    PTCLDY    20  15  81 SE6       30.47F WCI  12
WINNER         FAIR      25  20  81 SE14      30.35F WCI  13
YANKTON        CLEAR     18  16  93 S3        30.50F
$$

MNZ071-072-080-081-089-090-097-098-301200-
SOUTHWEST MINNESOTA

CITY           SKY/WX    TMP DP  RH WIND       PRES   REMARKS
FAIRMONT       CLEAR     12   7  79 CALM      30.50S
JACKSON        CLEAR     14  10  85 E3        30.49S
LUVERNE        CLOUDY    21  18  86 SE3       30.49F
MARSHALL       CLOUDY    16  10  79 CALM      30.51S
MONTEVIDEO     CLEAR      9   7  92 CALM      30.51F
PIPESTONE      CLOUDY    18  16  93 SW7       30.46S WCI   8
REDWOOD FALLS  CLEAR     12   7  80 CALM      30.51F
TRACY          CLOUDY    15  11  86 CALM      30.49F
WINDOM         CLEAR     12  10  92 CALM      30.49F
WORTHINGTON    CLOUDY    14  10  85 E3        30.49S
$$

IAZ001>003-012>014-020>022-031-032-NEZ013-014-SDZ071-301200-
NORTHWEST IOWA

CITY           SKY/WX    TMP DP  RH WIND       PRES   REMARKS
CHEROKEE       CLEAR     15  14  95 CALM      30.53S
DENISON        CLEAR     16  14  93 CALM      30.51F
ESTHERVILLE    CLEAR     12   9  87 CALM      30.51S
LE MARS        CLEAR     19  18  93 S5        30.52F WCI  13
ORANGE CITY    CLEAR     19  16  86 CALM      30.49F
SHELDON        CLOUDY    18  16  93 CALM      30.49F
SIOUX CITY     PTCLDY    19  16  88 E6        30.52F WCI  11
SPENCER        CLEAR     16  11  80 CALM      30.51S
STORM LAKE     CLEAR     16  12  86 NE3       30.52R
$$

ABBREVIATIONS USED IN REMARKS
   TC - TEMPERATURE IN CELSIUS
  WCI - WIND CHILL INDEX
   HX - HEAT INDEX
  VSB - VISIBILITY




USA.gov is the U.S. government's official web portal to all federal, state and local government web resources and services.